TimeMDT,TemperatureF,Dew PointF,Humidity,Sea Level PressureIn,VisibilityMPH,Wind Direction,Wind SpeedMPH,Gust SpeedMPH,PrecipitationIn,Events,Conditions,WindDirDegrees,DateUTC
12:15 AM,35.6,33.8,93,29.60,0.5,SW,17.3,24.2,N/A,Fog,Fog,230,2014-04-23 06:15:00
12:35 AM,33.8,33.8,100,29.60,7.0,SW,21.9,29.9,0.01,,Unknown,230,2014-04-23 06:35:00
12:55 AM,33.8,33.8,100,29.59,3.0,SW,17.3,27.6,0.01,Snow,Light Snow,230,2014-04-23 06:55:00
1:15 AM,32.0,32.0,100,29.58,0.2,SW,15.0,-,N/A,Snow,Light Snow,230,2014-04-23 07:15:00
1:35 AM,32.0,32.0,100,29.58,10.0,WSW,15.0,19.6,N/A,,Unknown,250,2014-04-23 07:35:00
1:55 AM,33.8,30.2,87,29.58,10.0,WSW,13.8,23.0,N/A,,Overcast,250,2014-04-23 07:55:00
2:15 AM,33.8,28.4,81,29.58,10.0,WSW,16.1,23.0,N/A,,Overcast,250,2014-04-23 08:15:00
2:35 AM,32.0,26.6,80,29.59,10.0,WSW,13.8,20.7,N/A,,Overcast,240,2014-04-23 08:35:00
2:55 AM,32.0,26.6,80,29.59,10.0,SW,10.4,19.6,N/A,,Overcast,230,2014-04-23 08:55:00
3:15 AM,32.0,28.4,87,29.61,10.0,WSW,15.0,18.4,N/A,,Unknown,240,2014-04-23 09:15:00
3:35 AM,30.2,28.4,93,29.61,10.0,WSW,15.0,21.9,N/A,,Unknown,240,2014-04-23 09:35:00
3:55 AM,30.2,26.6,86,29.61,10.0,WSW,15.0,21.9,N/A,,Unknown,250,2014-04-23 09:55:00
4:15 AM,30.2,26.6,86,29.60,10.0,WSW,15.0,18.4,N/A,,Scattered Clouds,240,2014-04-23 10:15:00
4:35 AM,28.4,28.4,100,29.61,10.0,WSW,16.1,21.9,N/A,,Scattered Clouds,240,2014-04-23 10:35:00
4:55 AM,28.4,26.6,93,29.62,10.0,WSW,16.1,23.0,N/A,,Clear,240,2014-04-23 10:55:00
5:15 AM,28.4,26.6,93,-9999,10.0,WSW,20.7,27.6,N/A,,Mostly Cloudy,240,2014-04-23 11:15:00
5:35 AM,28.4,26.6,93,-9999,10.0,WSW,18.4,28.8,N/A,,Overcast,240,2014-04-23 11:35:00
5:55 AM,26.6,26.6,100,-9999,10.0,WSW,19.6,27.6,N/A,,Overcast,240,2014-04-23 11:55:00
6:15 AM,26.6,26.6,100,-9999,5.0,WSW,19.6,27.6,N/A,,Overcast,250,2014-04-23 12:15:00
6:35 AM,26.6,26.6,100,-9999,4.0,WSW,17.3,26.5,N/A,Snow,Light Snow,240,2014-04-23 12:35:00
6:55 AM,26.6,23.0,86,-9999,5.0,WSW,16.1,21.9,N/A,Snow,Light Snow,250,2014-04-23 12:55:00
7:15 AM,26.6,23.0,86,-9999,7.0,West,13.8,20.7,N/A,Snow,Light Snow,260,2014-04-23 13:15:00
7:35 AM,28.4,19.4,69,-9999,10.0,West,19.6,29.9,N/A,,Clear,260,2014-04-23 13:35:00
7:55 AM,28.4,17.6,64,-9999,10.0,West,16.1,27.6,N/A,,Clear,260,2014-04-23 13:55:00
8:15 AM,28.4,15.8,59,29.67,10.0,WSW,20.7,31.1,N/A,,Clear,250,2014-04-23 14:15:00
8:35 AM,28.4,15.8,59,29.66,10.0,West,19.6,28.8,N/A,,Clear,260,2014-04-23 14:35:00
8:55 AM,28.4,15.8,59,29.69,10.0,West,15.0,26.5,N/A,,Clear,260,2014-04-23 14:55:00
9:15 AM,28.4,15.8,59,29.70,10.0,WSW,17.3,29.9,N/A,,Clear,250,2014-04-23 15:15:00
9:35 AM,28.4,15.8,59,29.70,10.0,WSW,12.7,28.8,N/A,,Clear,250,2014-04-23 15:35:00
9:55 AM,28.4,17.6,64,29.71,10.0,WSW,17.3,28.8,N/A,,Scattered Clouds,250,2014-04-23 15:55:00
10:15 AM,28.4,17.6,64,29.72,10.0,West,15.0,29.9,N/A,,Scattered Clouds,260,2014-04-23 16:15:00
10:35 AM,28.4,15.8,59,29.73,10.0,WSW,17.3,27.6,N/A,,Mostly Cloudy,250,2014-04-23 16:35:00
11:35 AM,32.0,14.0,48,29.75,10.0,West,16.1,26.5,N/A,,Scattered Clouds,260,2014-04-23 17:35:00
11:55 AM,32.0,12.2,44,29.75,10.0,WSW,13.8,23.0,N/A,,Mostly Cloudy,250,2014-04-23 17:55:00
12:15 PM,32.0,10.4,41,29.76,10.0,West,15.0,25.3,N/A,,Mostly Cloudy,270,2014-04-23 18:15:00
12:35 PM,32.0,12.2,44,29.76,10.0,West,12.7,29.9,N/A,,Mostly Cloudy,260,2014-04-23 18:35:00
12:55 PM,32.0,10.4,41,29.75,10.0,West,18.4,27.6,N/A,,Mostly Cloudy,280,2014-04-23 18:55:00
1:15 PM,32.0,10.4,41,29.76,10.0,WSW,15.0,25.3,N/A,,Mostly Cloudy,250,2014-04-23 19:15:00
1:35 PM,32.0,10.4,41,29.77,10.0,WSW,13.8,20.7,N/A,,Overcast,250,2014-04-23 19:35:00
1:55 PM,32.0,12.2,44,29.78,10.0,West,15.0,25.3,N/A,,Mostly Cloudy,260,2014-04-23 19:55:00
2:15 PM,32.0,12.2,44,29.78,10.0,West,16.1,26.5,N/A,,Mostly Cloudy,280,2014-04-23 20:15:00
2:35 PM,32.0,12.2,44,29.79,10.0,West,18.4,26.5,N/A,,Mostly Cloudy,280,2014-04-23 20:35:00
2:55 PM,32.0,14.0,48,29.79,10.0,West,15.0,24.2,N/A,,Mostly Cloudy,270,2014-04-23 20:55:00
3:15 PM,33.8,10.4,38,29.80,10.0,West,18.4,31.1,N/A,,Mostly Cloudy,260,2014-04-23 21:15:00
3:35 PM,32.0,8.6,38,29.81,10.0,West,17.3,24.2,N/A,,Scattered Clouds,260,2014-04-23 21:35:00
3:55 PM,33.8,8.6,35,29.80,10.0,West,20.7,26.5,N/A,,Clear,270,2014-04-23 21:55:00
4:15 PM,33.8,8.6,35,29.80,10.0,West,20.7,26.5,N/A,,Clear,260,2014-04-23 22:15:00
4:35 PM,32.0,6.8,35,29.81,10.0,West,19.6,27.6,N/A,,Scattered Clouds,260,2014-04-23 22:35:00
4:55 PM,33.8,5.0,30,29.82,10.0,West,15.0,29.9,N/A,,Scattered Clouds,270,2014-04-23 22:55:00
5:15 PM,33.8,3.2,28,29.83,10.0,West,16.1,27.6,N/A,,Clear,260,2014-04-23 23:15:00
5:35 PM,32.0,5.0,32,29.83,10.0,West,13.8,26.5,N/A,,Scattered Clouds,270,2014-04-23 23:35:00
5:55 PM,32.0,8.6,38,29.85,10.0,West,15.0,20.7,N/A,,Scattered Clouds,270,2014-04-23 23:55:00
6:15 PM,32.0,5.0,32,29.86,10.0,West,11.5,24.2,N/A,,Scattered Clouds,270,2014-04-24 00:15:00
6:35 PM,32.0,5.0,32,29.86,10.0,WNW,15.0,25.3,N/A,,Scattered Clouds,290,2014-04-24 00:35:00
6:55 PM,32.0,5.0,32,29.87,10.0,West,12.7,23.0,N/A,,Scattered Clouds,280,2014-04-24 00:55:00
7:15 PM,30.2,10.4,44,29.88,10.0,West,13.8,23.0,N/A,,Mostly Cloudy,280,2014-04-24 01:15:00
7:35 PM,30.2,12.2,47,29.88,10.0,West,8.1,18.4,N/A,,Mostly Cloudy,270,2014-04-24 01:35:00
7:55 PM,30.2,10.4,44,29.88,10.0,West,6.9,17.3,N/A,,Mostly Cloudy,270,2014-04-24 01:55:00
8:15 PM,30.2,14.0,51,29.89,10.0,West,11.5,20.7,N/A,,Scattered Clouds,260,2014-04-24 02:15:00
8:35 PM,28.4,17.6,64,29.90,10.0,West,5.8,-,N/A,,Mostly Cloudy,260,2014-04-24 02:35:00
8:55 PM,28.4,15.8,59,29.91,10.0,WSW,12.7,18.4,N/A,,Mostly Cloudy,250,2014-04-24 02:55:00
9:15 PM,28.4,14.0,55,29.91,10.0,WSW,11.5,16.1,N/A,,Mostly Cloudy,250,2014-04-24 03:15:00
9:35 PM,28.4,15.8,59,-9999,10.0,WSW,6.9,-,N/A,,Mostly Cloudy,250,2014-04-24 03:35:00
9:55 PM,28.4,17.6,64,-9999,10.0,SW,8.1,-,N/A,,Scattered Clouds,230,2014-04-24 03:55:00
10:15 PM,26.6,17.6,69,-9999,10.0,SW,8.1,-,N/A,,Clear,220,2014-04-24 04:15:00
10:35 PM,26.6,17.6,69,-9999,10.0,SW,6.9,19.6,N/A,,Clear,230,2014-04-24 04:35:00
10:55 PM,26.6,17.6,69,-9999,10.0,SSW,4.6,-,N/A,,Clear,200,2014-04-24 04:55:00
11:15 PM,26.6,17.6,69,-9999,10.0,SSW,5.8,-,N/A,,Clear,210,2014-04-24 05:15:00
11:35 PM,26.6,17.6,69,-9999,10.0,SW,10.4,16.1,N/A,,Clear,230,2014-04-24 05:35:00
11:55 PM,28.4,15.8,59,-9999,10.0,WSW,13.8,26.5,N/A,,Clear,250,2014-04-24 05:55:00